7 * 24
多渠道服务支持
STARLINK-34379是美国SpaceX公司星链(Starlink)星座的低轨通信卫星,于2025年6月8日发射升空。作为星链大规模组网的组成部分,它延续了星链卫星的设计思路,采用平板构型与氪工质霍尔推进器,配备光学星间链路和自主避撞系统,旨在为全球尤其是偏远地区提供低延迟、高速宽带互联网服务,服役寿命末期将主动离轨坠入大气层焚毁,减少空间碎片影响。
美国
(US)
| 数据来源 | 国际轨道数据 |
| 星历时间: | 2026-04-29T11:11:59+0800 11小时前 查看轨道信息 |
| 半长轴: | 6821.209km |
| 偏心率: | 0.0003477 |
| 轨道倾角: | 70.002° |
| 近地点辐角 | 264.595° |
| 升交点赤经 | 28.816° |
| 平近点角 | 95.483° |
| 近地点: | 440.7km |
| 远地点: | 445.444km |
| 周期: | 93.444分钟 |
| 每日圈数: | 15.41029 |